{"data":{"norad_id":56953,"epoch":"2026-05-24T23:06:23.671872Z","epoch_age_seconds":85177,"freshness":"FRESH","line1":"1 56953U 23084X   26144.96277398  .00009104  00000+0  25177-3 0  9991","line2":"2 56953  97.6205 286.1945 0008612  45.3272 314.8672 15.37225222164030","mean_motion":15.37225222,"eccentricity":0.0008612,"inclination_deg":97.6205,"raan_deg":286.1945,"arg_perigee_deg":45.3272,"mean_anomaly_deg":314.8672,"bstar":0.00025177,"rev_number":16403,"period_min":93.67527798734,"perigee_km":448.43483734122,"apogee_km":460.20305946675,"semimajor_km":6832.455948404,"source":"CELESTRAK","updated_at":"2026-05-25T13:37:59.785798Z"}}